Погода в Новомарьевской

Россия / Ставропольский край     45°08′11″N   41°48′30″E
темп.,
°C
ветер,
м/с
пор.,
м/с
влажн.,
%
обл.,
%
осадки,
мм/ч
давл.,
гПа
погр.,
м
16 мая, пн
пн1600:00+12з49925 0.1 1015256
03:00+9зюз39950 0.1 1015203
06:00+10зюз38940 0.0 1016234
09:00+15з69695 0.0 1016911
12:00+18з9115465 0.0 10152079
15:00+17зсз9136493 0.6 10161656
18:00+15зсз610652 0.2 10161068
21:00+10з34765 0.2 101856
17 мая, вт
вт1700:00+9юз22852 0.0 101827
03:00+8ююз34935 0.0 101867
06:00+9ююз388895 0.0 1018209
09:00+14зюз6107096 0.2 1017813
12:00+16з7106699 0.9 10161359
15:00+13з61185100 2.3 1015653
18:00+13з61191100 2.1 1015698
21:00+11зюз4109133 3.1 1016244
18 мая, ср
ср1800:00+10зюз312925 0.1 1015278
03:00+8ююз339191 0.1 101449
06:00+10ю3688100 0.0 1014151
09:00+13зюз2676100 0.0 1013442
12:00+16ссв1264100 0.1 1011644
15:00+13ссз5792100 1.3 1011445
18:00+11с3698100 5.3 1012348
21:00+10ссв2698100 12.4 1012420
19 мая, чт
чт1900:00+10вюв2497100 6.4 1012198
03:00+10ссв1198100 14.1 101338
06:00+8с5897100 6.2 1017408
09:00+9з5793100 8.7 1020528
12:00+11зюз6783100 0.9 1021859
15:00+13з697838 2.4 10211313
18:00+12зсз58835 1.3 1021721
21:00+8зюз39925 1.5 1023174
20 мая, пт
пт2000:00+7юз4109585 0.0 1023218
03:00+6юз51298100 0.3 1023297
06:00+8юз51394100 0.1 1023445
09:00+10зюз71189100 0.3 1022758
12:00+10зюз71393100 1.9 1022973
15:00+10зюз71294100 2.8 1021747
18:00+11зюз61293100 0.3 1021693
21:00+10зюз61393100 1.3 1021502